SCP
0 0 0 0 0 0 0 0 0 0 0 0 -0 -0 -0 -0 0 0 0 0 -0 0 -0 -0 0 0 0 -0 -0 -0 -0 -0 -0 -0 -0 -0 -0 -0 -0 -0 -0 -0 -0 -0 -0 -0 -0 -0 -0
0 0 0 0 -0 0 -0 0 0 0 0 0 0 0 0 0 -0 0 0 0 -0 0 0 -0 -0 -0 0 -0 0 -0 -0 -0 -0 0 -0 -0 -0 -0 -0 -0 -0 -0 -0 -0 -0 -0 -0 -0 -0
0 0 0 0 0 -0 0 0 0 0 0 0 0 0 0 0 0 0 0 -0 -0 0 0 -0 -0 -0 0 -0 -0 -0 -0 -0 -0 -0 -0 -0 -0 -0 -0 -0 -0 -0 -0 -0 -0 -0 -0 -0 -0
0 0 0 0 -0 0 0 0 0 0 0 0 0 0 0 0 0 0 0 -0 0 0 0 0 0 0 -0 -0 0 -0 -0 -0 -0 -0 -0 -0 -0 -0 -0 -0 -0 -0 -0 -0 -0 -0 -0 -0 -0
0 0 0 0 0 0 0 0 -0 0 0 0 0 0 0 0 0 0 0 0 0 0 0 0 0 0 -0 -0 -0 -0 -0 -0 -0 -0 -0 -0 -0 -0 -0 -0 -0 -0 -0 -0 -0 -0 -0 -0 -0
0 0 0 0 -0 -0 -0 -0 -0 -0 -0 0 0 0 0 0 0 0 0 -0 -0 -0 0 0 0 0 0 -0 -0 -0 -0 -0 -0 -0 -0 -0 -0 -0 -0 -0 -0 -0 -0 -0 -0 -0 -0 -0 -0
0 0 0 0 -0 -0 -0 -0 -0 -0 -0 -0 0 0 0 0 -0 -0 -0 -0 -0 -0 -0 0 0 0 -0 -0 -0 -0 -0 -0 -0 -0 -0 -0 -0 -0 -0 -0 -0 -0 -0 -0 -0 -0 -0 -0 -0
0 0 0 0 0 0 0 0 -0 -0 0 0 0 -0 -0 -0 -0 -0 0 -0 -0 -0 -0 -0 0 0 0 -0 -0 -0 -0 -0 -0 -0 -0 -0 -0 -0 -0 -0 -0 -0 -0 -0 -0 -0 -0 -0 -0
0 0 0 0 0 -0 -0 0 -0 -0 -0 0 0 -0 -0 -0 -0 -0 -0 0 -0 -0 -0 -0 -0 0 0 0 -0 -0 -0 -0 -0 -0 -0 -0 -0 -0 -0 -0 -0 -0 -0 -0 -0 -0 -0 -0 -0
0 0 0 0 0 -0 -0 -0 -0 -0 -0 -0 -0 -0 -0 -0 -0 -0 -0 -0 -0 -0 -0 -0 -0 -0 -0 -0 -0 -0 -0 -0 -0 -0 -0 -0 -0 0 -0 -0 -0 -0 -0 -0 -0 -0 -0 0 0
0 0 0 0 0 0 -0 0 -0 -0 -0 -0 -0 -0 -0 -0 -0 -0 -0 -0 -0 -0 -0 -0 -0 -0 -0 -0 -0 0 0 0 0 -0 -0 0 0 0 0 0 0 0 0 0 0 0 0 0 0
0 0 0 0 0 0 0 0 0 0 -0 0 -0 -0 -0 -0 -0 -0 -0 -0 -0 -0 -0 -0 -0 -0 -0 0 0 0 0 0 0 0 0 0 0 0 0 0 0 0 0 0 0 0 0 0 0
0 0 0 0 0 0 0 0 0 0 0 0 -0 -0 -0 -0 -0 -0 -0 -0 -0 -0 -0 -0 -0 0 -0 -0 0 0 0 0 0 0 0 0 0 0 0 0 0 0 0 0 0 0 0 0 0
0 0 0 0 0 0 0 0 0 0 0 0 0 -0 -0 -0 -0 -0 -0 -0 -0 -0 -0 0 0 0 0 0 0 0 0 0 0 0 0 0 0 0 0 0 0 0 0 0 0 0 0 0 0
0 0 0 0 0 0 0 0 0 0 0 0 0 0 -0 -0 -0 -0 -0 -0 -0 -0 -0 -0 -0 -0 0 0 0 0 0 0 0 0 0 0 0 0 0 0 0 0 0 0 0 0 0 0 0
0 0 0 0 0 0 0 0 0 0 0 0 0 0 0 -0 -0 -0 -0 -0 -0 -0 -0 -0 -0 -0 -0 0 0 0 0 0 0 0 0 0 0 0 0 0 0 0 0 0 0 0 0 0 0
0 0 0 0 0 0 0 0 0 0 0 0 0 0 0 0 0 0 -0 -0 -0 -0 -0 -0 -0 -0 -0 0 0 0 0 0 0 0 0 0 0 0 0 0 0 0 0 0 0 0 0 0 0
0 0 0 0 0 0 0 0 0 0 0 0 0 0 0 0 0 -0 -0 -0 -0 -0 0 -0 0 0 0 0 0 0 0 0 0 0 0 0 0 0 0 0 0 0 0 0 0 0 0 0 0
0 0 0 0 0 0 0 0 0 0 0 0 0 0 0 0 0 0 0 0 0 0 0 0 0 0 0 0 0 0 0 0 0 0 0 0 0 0 0 0 0 0 0 0 0 0 0 0 0
0 0 0 0 0 0 0 0 0 0 0 0 0 0 0 0 0 0 0 0 0 0 0 0 0 0 0 0 0 0 0 0 0 0 0 0 0 0 0 0 0 0 0 0 0 0 0 0 0
0 0 0 0 0 0 -0 -0 -0 0 0 0 0 0 0 0 0 0 0 0 0 0 0 0 0 0 0 0 0 0 0 0 0 0 0 0 0 0 0 0 0 0 0 0 0 0 0 0 0
0 0 0 0 0 0 0 -0 -0 0 0 0 0 0 0 0 0 0 0 0 0 0 0 0 0 0 0 0 0 0 0 0 0 0 0 0 0 0 0 0 0 0 0 0 0 0 0 0 0
0 0 0 0 0 0 0 0 -0 -0 0 0 0 0 0 0 0 0 0 0 0 0 0 0 0 0 0 0 0 0 0 0 0 0 0 0 0 0 0 0 0 0 0 0 0 0 0 0 0
0 0 0 0 0 0 0 0 -0 -0 -0 -0 0 0 0 0 0 0 0 0 0 0 0 0 0 0 0 0 0 0 0 0 0 0 0 0 0 0 0 0 0 0 0 0 0 0 0 0 0
0 0 0 0 0 0 0 0 0 0 0 0 0 0 0 0 0 0 0 0 0 0 0 0 0 0 0 0 0 0 0 0 0 0 0 0 0 0 0 0 0 0 0 0 0 0 0 0 0
0 0 0 0 0 0 0 0 0 -0 0 0 0 0 0 0 0 0 0 0 0 0 0 0 0 0 0 0 0 0 0 0 0 0 0 0 0 0 0 0 0 0 0 0 0 0 0 0 0
0 0 0 0 0 0 0 0 0 0 0 0 0 0 0 0 0 0 0 0 0 0 0 0 0 0 0 0 0 0 0 0 0 0 0 0 0 0 0 0 0 0 0 0 0 0 0 0 0
0 0 0 0 0 0 0 0 0 0 0 0 0 0 0 0 0 0 0 0 0 0 0 0 0 0 0 0 0 0 0 0 0 0 0 0 0 0 0 0 0 0 0 0 0 0 0 0 0
0 0 0 0 0 0 0 0 -0 -0 0 0 0 0 0 0 0 -0 -0 -0 0 0 0 0 0 0 0 0 0 0 0 0 0 0 0 0 0 0 0 0 0 0 0 0 0 0 0 0 0
0 0 0 0 0 0 0 0 0 0 0 0 0 -0 -0 -0 -0 -0 0 0 0 0 0 0 0 0 -0 -0 0 0 0 0 0 0 0 0 0 0 0 0 0 0 0 0 0 0 0 0 0
Wind_Speed_500mb
4 10 10 8 8 9 2 3 10 10 8 11 16 17 18 12 5 4 28 41 39 38 36 33 29 26 23 21 18 18 20 23 26 26 28 30 32 37 31 24 15 17 23 30 36 39 45 50 46
3 8 10 3 7 8 6 6 12 8 18 22 17 13 5 4 8 38 42 34 38 33 31 33 29 26 23 21 16 16 19 22 26 26 27 27 28 31 25 19 13 16 27 31 35 40 46 47 43
4 11 7 8 6 7 7 10 16 18 19 15 9 12 9 8 28 37 30 34 36 34 31 31 29 26 25 23 16 16 18 21 23 25 26 25 24 26 22 17 19 22 26 30 35 41 44 43 40
6 6 4 7 4 7 9 15 32 18 13 14 19 17 16 9 45 32 39 35 30 32 33 31 30 28 27 24 17 15 17 18 21 23 23 22 21 20 16 15 17 20 24 28 33 39 41 41 37
5 3 6 6 2 6 11 35 28 11 19 15 13 11 16 36 27 35 44 36 37 34 31 33 32 30 28 25 19 15 15 16 19 20 20 20 19 16 15 15 17 18 22 25 30 35 37 37 37
2 4 7 7 6 7 6 22 29 22 31 20 13 19 15 27 29 38 43 41 35 33 31 33 33 31 29 26 22 16 15 15 16 16 16 18 18 17 17 17 18 18 20 23 28 32 34 34 36
8 7 6 3 7 7 9 14 18 22 23 13 11 8 18 32 29 53 46 32 30 31 32 34 37 35 31 27 23 19 15 15 15 14 14 15 17 18 19 19 18 18 19 22 26 28 30 30 29
4 8 9 6 1 4 9 10 6 22 7 27 17 11 13 35 44 45 49 37 35 35 31 35 39 37 34 32 28 23 20 18 17 14 13 14 16 18 20 21 20 19 19 20 22 23 25 26 25
6 8 5 6 4 9 20 5 3 13 23 10 14 15 14 34 44 48 51 43 41 35 36 34 42 39 36 34 32 27 24 21 18 16 14 13 12 15 18 17 18 19 19 19 20 21 23 24 22
8 8 7 1 4 5 14 9 15 9 15 10 16 14 20 33 41 58 61 56 53 46 42 41 40 43 41 39 36 33 30 26 23 21 19 16 13 14 13 14 15 17 17 18 20 21 21 18 17
9 10 7 4 8 10 6 6 12 11 5 21 30 30 40 37 38 49 58 61 59 52 50 46 46 42 40 41 39 37 35 32 29 29 28 25 20 18 17 14 14 16 14 14 17 17 15 13 13
5 4 8 4 5 4 5 6 3 17 8 3 26 32 43 42 40 47 58 64 64 61 57 49 50 48 45 41 40 37 41 39 36 35 36 36 28 22 23 19 17 18 15 8 6 8 9 12 10
6 1 9 7 2 2 4 4 10 16 23 24 15 30 44 42 38 39 44 59 66 65 60 54 51 53 54 52 49 47 44 43 39 39 38 39 35 29 29 22 23 22 16 17 9 10 7 11 14
2 6 9 6 5 4 1 6 3 13 18 34 36 31 36 43 40 40 44 49 59 65 70 66 61 57 58 59 57 55 48 47 45 44 42 49 42 43 34 32 22 24 20 21 20 20 14 15 17
4 3 3 11 13 3 1 10 17 40 28 22 40 35 37 42 42 47 45 45 47 49 51 59 71 69 69 67 58 57 54 52 50 47 46 50 47 50 49 40 34 29 31 29 27 29 27 28 26
3 7 3 5 19 5 8 15 18 21 28 41 32 31 44 45 48 51 48 49 48 51 53 51 56 62 71 78 70 63 65 59 55 53 50 51 51 50 56 49 48 40 40 44 39 36 34 33 33
5 4 9 4 13 6 5 11 8 13 4 32 38 35 38 46 52 50 49 51 53 54 58 59 59 59 60 61 71 67 68 69 66 63 57 51 51 53 57 56 51 53 52 49 46 45 46 43 41
9 6 7 9 8 6 5 17 23 52 45 50 50 48 41 45 55 54 55 55 51 56 60 65 65 64 63 60 71 73 69 69 70 74 73 72 66 62 60 66 60 59 64 59 56 54 52 50 47
8 5 1 4 4 7 12 15 23 50 46 49 59 63 58 56 48 45 52 56 58 55 63 69 74 72 72 73 73 84 82 76 73 71 68 66 73 72 70 71 73 66 71 67 64 62 61 60 60
5 3 6 3 3 3 9 23 20 35 44 57 67 67 64 61 57 51 53 56 61 61 61 67 76 78 76 76 73 79 83 80 77 72 73 70 72 74 75 79 75 76 75 78 76 71 71 70 71
4 8 5 5 6 3 4 18 12 12 20 35 46 55 60 63 60 52 49 58 61 67 63 61 67 76 78 76 74 75 78 79 79 81 80 80 81 79 77 80 82 80 82 84 82 80 81 85 76
5 3 11 6 7 7 7 12 10 13 22 14 35 44 51 48 42 37 46 53 59 63 61 60 57 63 71 74 78 81 82 84 82 84 82 81 80 84 87 80 84 87 84 86 91 85 82 94 86
10 1 7 5 5 4 4 2 15 10 13 20 30 20 12 12 18 25 25 27 41 44 53 56 56 59 66 73 81 81 81 81 80 78 79 79 79 81 88 88 88 89 90 92 90 97 95 96 88
14 11 12 10 6 5 17 16 10 8 12 4 8 13 10 5 4 5 11 24 29 30 38 47 54 59 62 68 75 78 78 78 76 78 79 79 77 77 80 92 90 96 97 94 96 97 95 99 94
7 12 3 5 4 13 6 4 12 15 18 6 10 11 4 5 5 10 18 21 24 26 31 37 45 48 49 56 61 66 68 70 72 74 77 78 78 82 80 81 89 97 103 100 99 96 93 97 101
14 14 11 13 8 9 7 12 9 19 28 6 4 5 1 12 19 20 19 19 19 21 26 31 34 35 38 42 46 49 55 61 64 67 69 75 76 76 72 73 73 81 90 100 100 99 96 88 93
11 11 10 9 4 6 9 13 16 15 18 30 26 10 16 15 15 16 14 15 12 13 14 15 19 21 22 27 31 37 41 47 52 54 57 61 66 70 69 68 68 70 79 81 96 98 94 86 97
11 9 5 5 3 7 9 10 12 14 24 18 13 16 16 20 22 18 13 8 9 7 3 4 8 12 13 16 21 26 32 37 41 45 51 55 57 61 64 66 65 65 70 75 87 95 94 95 90
4 5 5 8 10 10 4 13 13 15 7 17 17 20 21 18 19 28 27 25 27 25 22 24 32 33 24 22 28 35 43 49 50 53 54 56 58 61 63 63 64 58 62 71 83 89 94 88 92
5 14 12 9 7 8 7 26 7 15 13 23 19 23 16 10 8 18 26 29 34 41 48 52 45 47 38 38 43 48 53 60 65 63 60 60 61 60 64 63 63 62 58 60 67 83 90 90 94
Wind_Direction_500mb
288 315 309 338 50 71 237 42 128 92 52 90 80 71 119 78 66 167 145 151 156 145 153 153 148 136 128 120 92 84 90 91 93 93 95 99 108 115 108 110 108 103 95 95 95 96 101 100 93
338 327 328 9 82 82 306 106 84 108 120 107 91 73 65 97 110 135 137 157 167 154 156 158 154 152 144 126 116 102 97 96 90 88 89 93 106 117 113 120 115 97 100 100 98 104 110 110 102
39 334 328 104 108 121 159 140 140 115 115 115 102 75 87 103 140 140 159 159 172 172 168 165 161 158 152 145 135 113 106 98 91 87 86 90 102 118 119 119 104 99 103 103 106 111 115 115 110
61 327 278 82 145 335 101 154 126 113 93 108 111 85 94 151 147 153 159 173 180 173 171 168 166 164 160 151 143 123 114 107 97 92 89 92 102 119 116 113 107 103 104 108 111 115 120 117 104
62 279 25 37 16 132 97 147 134 129 137 141 113 148 107 148 170 162 165 172 171 179 179 174 173 169 165 162 158 140 129 121 115 108 97 94 98 104 106 105 103 104 105 110 115 123 126 124 113
85 47 40 355 145 139 86 140 132 127 133 134 117 121 143 156 170 166 165 169 170 173 180 180 178 173 171 172 169 161 150 140 130 118 105 100 98 97 103 108 108 107 108 113 122 131 135 133 125
116 82 225 293 243 124 164 150 146 138 137 157 124 86 145 178 195 162 165 177 178 180 189 189 185 182 180 181 181 175 167 156 151 137 124 113 109 109 108 109 109 111 115 120 128 136 137 137 137
130 97 350 303 143 119 158 129 144 140 136 147 155 151 175 178 169 165 164 177 182 184 192 199 194 191 188 189 189 187 182 173 170 163 148 136 129 123 118 115 110 108 112 120 129 136 142 146 148
132 68 292 293 318 140 158 113 122 105 135 149 156 151 163 170 166 167 166 183 189 196 203 208 200 196 197 196 196 195 194 192 185 187 183 168 154 143 135 127 119 113 114 123 132 140 146 154 158
107 119 230 321 14 133 168 153 175 157 138 148 161 165 163 170 181 178 177 188 194 195 198 202 206 204 202 204 204 203 203 204 202 203 202 200 188 171 160 145 134 125 123 129 140 150 157 165 162
170 177 202 27 59 60 138 176 182 153 211 207 201 180 177 182 190 190 187 190 204 203 206 202 202 206 214 210 212 213 212 212 211 207 212 209 206 202 188 179 163 148 136 150 156 161 168 183 166
160 217 112 126 49 52 81 316 241 196 216 315 215 215 193 199 203 201 199 196 204 210 217 221 206 206 206 212 219 223 221 218 215 214 214 218 219 211 196 200 197 183 167 189 171 190 188 204 224
134 211 92 124 34 154 270 251 259 258 240 243 256 197 207 210 215 214 211 210 205 214 218 219 210 207 208 214 217 220 219 222 222 225 218 224 217 220 211 207 211 213 204 229 218 245 234 217 230
135 117 154 154 184 218 191 260 13 248 237 234 232 224 218 218 223 221 217 214 219 219 220 225 223 216 213 212 214 217 223 222 222 226 226 223 228 217 227 218 222 228 228 239 245 249 245 253 243
95 38 310 197 189 177 139 309 231 256 242 230 227 233 227 228 228 231 233 231 229 232 230 221 223 222 221 219 218 218 223 223 224 230 231 232 236 232 227 232 231 243 244 243 245 244 244 236 231
116 57 30 294 149 198 118 271 280 292 225 229 232 235 231 230 237 240 241 241 240 238 238 237 230 227 227 224 225 225 221 228 228 228 230 233 236 241 237 240 236 238 243 245 235 249 243 233 242
351 200 204 272 190 128 138 270 273 24 333 247 251 247 247 245 243 245 245 246 244 242 241 240 240 237 234 232 229 225 226 228 229 230 230 232 239 242 243 245 241 238 239 245 249 239 235 235 232
195 210 272 204 232 120 208 258 279 281 286 280 271 262 253 246 245 245 245 244 247 246 242 243 244 244 239 237 233 232 231 229 230 230 235 235 239 244 243 239 241 237 238 241 244 243 234 232 236
135 132 134 165 212 155 226 262 268 281 280 269 263 258 253 252 255 246 246 246 245 244 240 239 240 241 240 236 228 229 232 234 235 236 234 232 233 241 246 245 240 241 238 242 238 236 231 223 224
170 133 282 63 138 159 279 277 258 261 260 257 259 261 258 258 256 253 249 244 245 247 245 242 241 243 243 243 240 235 236 238 241 241 240 239 231 233 239 247 242 241 240 236 234 236 228 226 230
165 169 219 211 327 323 20 293 302 285 254 279 267 265 265 261 260 256 249 247 246 243 244 247 248 246 245 246 245 242 240 241 240 241 240 238 238 237 236 241 244 242 241 242 239 237 235 239 236
203 254 225 136 71 241 73 286 277 269 283 296 283 265 263 267 265 263 251 244 243 246 248 249 253 253 250 249 248 246 245 243 245 246 246 244 242 241 239 239 244 244 245 245 242 241 245 246 247
203 19 130 113 141 27 309 156 271 290 285 271 272 286 287 270 270 253 249 251 250 247 250 252 251 253 254 253 251 250 249 250 251 253 255 251 247 245 245 243 243 244 246 243 244 238 238 243 253
151 75 41 42 80 283 204 187 280 215 221 256 354 118 95 37 320 232 228 233 249 247 240 244 246 250 253 253 253 254 254 255 255 254 255 256 255 252 248 246 246 245 245 247 244 245 244 245 247
97 90 335 342 353 235 339 219 243 278 250 240 242 241 307 343 327 290 300 275 255 248 248 243 246 253 254 254 254 257 259 260 260 260 261 261 261 261 260 256 252 248 247 247 244 246 245 247 246
195 163 160 197 204 270 328 244 263 251 282 235 329 40 29 304 298 288 285 278 263 254 245 249 254 259 257 257 260 260 261 262 265 264 265 268 270 271 270 267 262 258 252 245 247 247 244 251 248
207 209 189 87 23 43 234 293 311 316 309 323 316 8 57 23 354 322 309 286 279 276 278 272 270 267 273 272 267 264 264 262 265 269 269 271 273 274 275 273 269 265 258 250 247 248 244 250 247
138 169 70 2 161 268 275 275 222 303 286 269 81 65 43 29 24 25 24 358 347 348 339 85 56 22 348 326 307 291 283 278 275 269 267 268 272 273 273 273 270 266 259 255 246 249 249 246 247
126 179 176 150 156 185 276 263 225 227 199 112 110 74 25 23 53 57 58 69 57 44 23 348 333 337 324 313 311 306 296 282 274 269 267 265 266 268 271 273 272 266 261 254 245 248 251 246 253
163 188 158 147 235 228 182 255 104 122 124 115 95 58 42 29 75 23 12 353 344 340 339 337 325 318 306 300 300 306 303 285 274 270 271 271 269 268 271 272 273 270 261 255 247 246 248 248 253
Wind_Speed_850mb
4 10 10 8 8 9 2 3 10 10 8 11 16 17 18 12 5 4 28 41 39 38 36 33 29 26 23 21 18 18 20 23 26 26 28 30 32 37 31 24 15 17 23 30 36 39 45 50 46
3 8 10 3 7 8 6 6 12 8 18 22 17 13 5 4 8 38 42 34 38 33 31 33 29 26 23 21 16 16 19 22 26 26 27 27 28 31 25 19 13 16 27 31 35 40 46 47 43
4 11 7 8 6 7 7 10 16 18 19 15 9 12 9 8 28 37 30 34 36 34 31 31 29 26 25 23 16 16 18 21 23 25 26 25 24 26 22 17 19 22 26 30 35 41 44 43 40
6 6 4 7 4 7 9 15 32 18 13 14 19 17 16 9 45 32 39 35 30 32 33 31 30 28 27 24 17 15 17 18 21 23 23 22 21 20 16 15 17 20 24 28 33 39 41 41 37
5 3 6 6 2 6 11 35 28 11 19 15 13 11 16 36 27 35 44 36 37 34 31 33 32 30 28 25 19 15 15 16 19 20 20 20 19 16 15 15 17 18 22 25 30 35 37 37 37
2 4 7 7 6 7 6 22 29 22 31 20 13 19 15 27 29 38 43 41 35 33 31 33 33 31 29 26 22 16 15 15 16 16 16 18 18 17 17 17 18 18 20 23 28 32 34 34 36
8 7 6 3 7 7 9 14 18 22 23 13 11 8 18 32 29 53 46 32 30 31 32 34 37 35 31 27 23 19 15 15 15 14 14 15 17 18 19 19 18 18 19 22 26 28 30 30 29
4 8 9 6 1 4 9 10 6 22 7 27 17 11 13 35 44 45 49 37 35 35 31 35 39 37 34 32 28 23 20 18 17 14 13 14 16 18 20 21 20 19 19 20 22 23 25 26 25
6 8 5 6 4 9 20 5 3 13 23 10 14 15 14 34 44 48 51 43 41 35 36 34 42 39 36 34 32 27 24 21 18 16 14 13 12 15 18 17 18 19 19 19 20 21 23 24 22
8 8 7 1 4 5 14 9 15 9 15 10 16 14 20 33 41 58 61 56 53 46 42 41 40 43 41 39 36 33 30 26 23 21 19 16 13 14 13 14 15 17 17 18 20 21 21 18 17
9 10 7 4 8 10 6 6 12 11 5 21 30 30 40 37 38 49 58 61 59 52 50 46 46 42 40 41 39 37 35 32 29 29 28 25 20 18 17 14 14 16 14 14 17 17 15 13 13
5 4 8 4 5 4 5 6 3 17 8 3 26 32 43 42 40 47 58 64 64 61 57 49 50 48 45 41 40 37 41 39 36 35 36 36 28 22 23 19 17 18 15 8 6 8 9 12 10
6 1 9 7 2 2 4 4 10 16 23 24 15 30 44 42 38 39 44 59 66 65 60 54 51 53 54 52 49 47 44 43 39 39 38 39 35 29 29 22 23 22 16 17 9 10 7 11 14
2 6 9 6 5 4 1 6 3 13 18 34 36 31 36 43 40 40 44 49 59 65 70 66 61 57 58 59 57 55 48 47 45 44 42 49 42 43 34 32 22 24 20 21 20 20 14 15 17
4 3 3 11 13 3 1 10 17 40 28 22 40 35 37 42 42 47 45 45 47 49 51 59 71 69 69 67 58 57 54 52 50 47 46 50 47 50 49 40 34 29 31 29 27 29 27 28 26
3 7 3 5 19 5 8 15 18 21 28 41 32 31 44 45 48 51 48 49 48 51 53 51 56 62 71 78 70 63 65 59 55 53 50 51 51 50 56 49 48 40 40 44 39 36 34 33 33
5 4 9 4 13 6 5 11 8 13 4 32 38 35 38 46 52 50 49 51 53 54 58 59 59 59 60 61 71 67 68 69 66 63 57 51 51 53 57 56 51 53 52 49 46 45 46 43 41
9 6 7 9 8 6 5 17 23 52 45 50 50 48 41 45 55 54 55 55 51 56 60 65 65 64 63 60 71 73 69 69 70 74 73 72 66 62 60 66 60 59 64 59 56 54 52 50 47
8 5 1 4 4 7 12 15 23 50 46 49 59 63 58 56 48 45 52 56 58 55 63 69 74 72 72 73 73 84 82 76 73 71 68 66 73 72 70 71 73 66 71 67 64 62 61 60 60
5 3 6 3 3 3 9 23 20 35 44 57 67 67 64 61 57 51 53 56 61 61 61 67 76 78 76 76 73 79 83 80 77 72 73 70 72 74 75 79 75 76 75 78 76 71 71 70 71
4 8 5 5 6 3 4 18 12 12 20 35 46 55 60 63 60 52 49 58 61 67 63 61 67 76 78 76 74 75 78 79 79 81 80 80 81 79 77 80 82 80 82 84 82 80 81 85 76
5 3 11 6 7 7 7 12 10 13 22 14 35 44 51 48 42 37 46 53 59 63 61 60 57 63 71 74 78 81 82 84 82 84 82 81 80 84 87 80 84 87 84 86 91 85 82 94 86
10 1 7 5 5 4 4 2 15 10 13 20 30 20 12 12 18 25 25 27 41 44 53 56 56 59 66 73 81 81 81 81 80 78 79 79 79 81 88 88 88 89 90 92 90 97 95 96 88
14 11 12 10 6 5 17 16 10 8 12 4 8 13 10 5 4 5 11 24 29 30 38 47 54 59 62 68 75 78 78 78 76 78 79 79 77 77 80 92 90 96 97 94 96 97 95 99 94
7 12 3 5 4 13 6 4 12 15 18 6 10 11 4 5 5 10 18 21 24 26 31 37 45 48 49 56 61 66 68 70 72 74 77 78 78 82 80 81 89 97 103 100 99 96 93 97 101
14 14 11 13 8 9 7 12 9 19 28 6 4 5 1 12 19 20 19 19 19 21 26 31 34 35 38 42 46 49 55 61 64 67 69 75 76 76 72 73 73 81 90 100 100 99 96 88 93
11 11 10 9 4 6 9 13 16 15 18 30 26 10 16 15 15 16 14 15 12 13 14 15 19 21 22 27 31 37 41 47 52 54 57 61 66 70 69 68 68 70 79 81 96 98 94 86 97
11 9 5 5 3 7 9 10 12 14 24 18 13 16 16 20 22 18 13 8 9 7 3 4 8 12 13 16 21 26 32 37 41 45 51 55 57 61 64 66 65 65 70 75 87 95 94 95 90
4 5 5 8 10 10 4 13 13 15 7 17 17 20 21 18 19 28 27 25 27 25 22 24 32 33 24 22 28 35 43 49 50 53 54 56 58 61 63 63 64 58 62 71 83 89 94 88 92
5 14 12 9 7 8 7 26 7 15 13 23 19 23 16 10 8 18 26 29 34 41 48 52 45 47 38 38 43 48 53 60 65 63 60 60 61 60 64 63 63 62 58 60 67 83 90 90 94
Wind_Direction_850mb
288 315 309 338 50 71 237 42 128 92 52 90 80 71 119 78 66 167 145 151 156 145 153 153 148 136 128 120 92 84 90 91 93 93 95 99 108 115 108 110 108 103 95 95 95 96 101 100 93
338 327 328 9 82 82 306 106 84 108 120 107 91 73 65 97 110 135 137 157 167 154 156 158 154 152 144 126 116 102 97 96 90 88 89 93 106 117 113 120 115 97 100 100 98 104 110 110 102
39 334 328 104 108 121 159 140 140 115 115 115 102 75 87 103 140 140 159 159 172 172 168 165 161 158 152 145 135 113 106 98 91 87 86 90 102 118 119 119 104 99 103 103 106 111 115 115 110
61 327 278 82 145 335 101 154 126 113 93 108 111 85 94 151 147 153 159 173 180 173 171 168 166 164 160 151 143 123 114 107 97 92 89 92 102 119 116 113 107 103 104 108 111 115 120 117 104
62 279 25 37 16 132 97 147 134 129 137 141 113 148 107 148 170 162 165 172 171 179 179 174 173 169 165 162 158 140 129 121 115 108 97 94 98 104 106 105 103 104 105 110 115 123 126 124 113
85 47 40 355 145 139 86 140 132 127 133 134 117 121 143 156 170 166 165 169 170 173 180 180 178 173 171 172 169 161 150 140 130 118 105 100 98 97 103 108 108 107 108 113 122 131 135 133 125
116 82 225 293 243 124 164 150 146 138 137 157 124 86 145 178 195 162 165 177 178 180 189 189 185 182 180 181 181 175 167 156 151 137 124 113 109 109 108 109 109 111 115 120 128 136 137 137 137
130 97 350 303 143 119 158 129 144 140 136 147 155 151 175 178 169 165 164 177 182 184 192 199 194 191 188 189 189 187 182 173 170 163 148 136 129 123 118 115 110 108 112 120 129 136 142 146 148
132 68 292 293 318 140 158 113 122 105 135 149 156 151 163 170 166 167 166 183 189 196 203 208 200 196 197 196 196 195 194 192 185 187 183 168 154 143 135 127 119 113 114 123 132 140 146 154 158
107 119 230 321 14 133 168 153 175 157 138 148 161 165 163 170 181 178 177 188 194 195 198 202 206 204 202 204 204 203 203 204 202 203 202 200 188 171 160 145 134 125 123 129 140 150 157 165 162
170 177 202 27 59 60 138 176 182 153 211 207 201 180 177 182 190 190 187 190 204 203 206 202 202 206 214 210 212 213 212 212 211 207 212 209 206 202 188 179 163 148 136 150 156 161 168 183 166
160 217 112 126 49 52 81 316 241 196 216 315 215 215 193 199 203 201 199 196 204 210 217 221 206 206 206 212 219 223 221 218 215 214 214 218 219 211 196 200 197 183 167 189 171 190 188 204 224
134 211 92 124 34 154 270 251 259 258 240 243 256 197 207 210 215 214 211 210 205 214 218 219 210 207 208 214 217 220 219 222 222 225 218 224 217 220 211 207 211 213 204 229 218 245 234 217 230
135 117 154 154 184 218 191 260 13 248 237 234 232 224 218 218 223 221 217 214 219 219 220 225 223 216 213 212 214 217 223 222 222 226 226 223 228 217 227 218 222 228 228 239 245 249 245 253 243
95 38 310 197 189 177 139 309 231 256 242 230 227 233 227 228 228 231 233 231 229 232 230 221 223 222 221 219 218 218 223 223 224 230 231 232 236 232 227 232 231 243 244 243 245 244 244 236 231
116 57 30 294 149 198 118 271 280 292 225 229 232 235 231 230 237 240 241 241 240 238 238 237 230 227 227 224 225 225 221 228 228 228 230 233 236 241 237 240 236 238 243 245 235 249 243 233 242
351 200 204 272 190 128 138 270 273 24 333 247 251 247 247 245 243 245 245 246 244 242 241 240 240 237 234 232 229 225 226 228 229 230 230 232 239 242 243 245 241 238 239 245 249 239 235 235 232
195 210 272 204 232 120 208 258 279 281 286 280 271 262 253 246 245 245 245 244 247 246 242 243 244 244 239 237 233 232 231 229 230 230 235 235 239 244 243 239 241 237 238 241 244 243 234 232 236
135 132 134 165 212 155 226 262 268 281 280 269 263 258 253 252 255 246 246 246 245 244 240 239 240 241 240 236 228 229 232 234 235 236 234 232 233 241 246 245 240 241 238 242 238 236 231 223 224
170 133 282 63 138 159 279 277 258 261 260 257 259 261 258 258 256 253 249 244 245 247 245 242 241 243 243 243 240 235 236 238 241 241 240 239 231 233 239 247 242 241 240 236 234 236 228 226 230
165 169 219 211 327 323 20 293 302 285 254 279 267 265 265 261 260 256 249 247 246 243 244 247 248 246 245 246 245 242 240 241 240 241 240 238 238 237 236 241 244 242 241 242 239 237 235 239 236
203 254 225 136 71 241 73 286 277 269 283 296 283 265 263 267 265 263 251 244 243 246 248 249 253 253 250 249 248 246 245 243 245 246 246 244 242 241 239 239 244 244 245 245 242 241 245 246 247
203 19 130 113 141 27 309 156 271 290 285 271 272 286 287 270 270 253 249 251 250 247 250 252 251 253 254 253 251 250 249 250 251 253 255 251 247 245 245 243 243 244 246 243 244 238 238 243 253
151 75 41 42 80 283 204 187 280 215 221 256 354 118 95 37 320 232 228 233 249 247 240 244 246 250 253 253 253 254 254 255 255 254 255 256 255 252 248 246 246 245 245 247 244 245 244 245 247
97 90 335 342 353 235 339 219 243 278 250 240 242 241 307 343 327 290 300 275 255 248 248 243 246 253 254 254 254 257 259 260 260 260 261 261 261 261 260 256 252 248 247 247 244 246 245 247 246
195 163 160 197 204 270 328 244 263 251 282 235 329 40 29 304 298 288 285 278 263 254 245 249 254 259 257 257 260 260 261 262 265 264 265 268 270 271 270 267 262 258 252 245 247 247 244 251 248
207 209 189 87 23 43 234 293 311 316 309 323 316 8 57 23 354 322 309 286 279 276 278 272 270 267 273 272 267 264 264 262 265 269 269 271 273 274 275 273 269 265 258 250 247 248 244 250 247
138 169 70 2 161 268 275 275 222 303 286 269 81 65 43 29 24 25 24 358 347 348 339 85 56 22 348 326 307 291 283 278 275 269 267 268 272 273 273 273 270 266 259 255 246 249 249 246 247
126 179 176 150 156 185 276 263 225 227 199 112 110 74 25 23 53 57 58 69 57 44 23 348 333 337 324 313 311 306 296 282 274 269 267 265 266 268 271 273 272 266 261 254 245 248 251 246 253
163 188 158 147 235 228 182 255 104 122 124 115 95 58 42 29 75 23 12 353 344 340 339 337 325 318 306 300 300 306 303 285 274 270 271 271 269 268 271 272 273 270 261 255 247 246 248 248 253